Showing default

CONNECTA IOT-13, 67400

Orbit data source: Space-Track

CONNECTA IOT-13, 67400 is a payload satellite owned by Plan-S (TR) in SSO that was launched on Sun, 11 Jan 2026 UTC via an FALCON 9 launch vehicle from the Air Force Western Test Range (AFWTR). Payload-class satellites include a variety of spacecraft equipped with specific instruments for various scientific and technological missions. These include communications satellites like Starlink; space stations such as the ISS; scientific satellites like the Hubble; Earth observation satellites from companies like Planet Labs, Umbra, and HawkEye 360; GPS; miniature CubeSats for education and research; and military/defense satellites.

Loading next visibility...
Identifier
67400, 2026-004AP
Orbit
SSO
Country
Flag of TRTR / TURK
Related business
Manufacturer
Plan-S
Mission
Operational Commercial Communications
Bus & Motor
CUBESAT 6U, Unknown motor
Mass
10 kg wet, 10 kg dry
Launch date (UTC)
2026-01-11 (4 months ago)
Launch vehicle
FALCON 9
Launch site
Air Force Western Test Range (AFWTR)
Object type
Payload
Rocket body
Debris
Shape & HBR
Box, 2.2 m
Radar Cross Section
0.080 m²

Expand to show TLE details & history
Last TLE update: 9 hours ago

TLE from 9 hours ago
0 CONNECTA IOT-13
1 67400U 26004AP  26146.51508308  .00013329  00000-0  66082-3 0  9991
2 67400  97.4559 145.8352 0010520  70.4895 289.7474 15.17813825 20461
Epoch: 2026-05-26T12:21Z
TLE epoch observation values (Epoch: 2026-05-26T12:21:43.178Z)
Latitude
-0.00002°
Longitude
76.31788°
Altitude
513.092 km
Speed
7.609 km/s
True Right ascension
09h 43m 20s
True Declination
0° 00' 00"
Sunlit
Object was in daylight at epoch
Visualization orbit readout
Latitude
Unknown
Longitude
Unknown
Altitude
Unknown
Speed
Unknown
Apparent Right ascension
Unknown
Apparent Declination
Unknown
Sunlit
N/A
Visualization observer readout
Local Sidereal Time
06:44:03
Azimuth
Unknown
Elevation
Unknown
Doppler factor
Unknown
Orbital elements
Apogee altitude
516.666 km
Perigee altitude
502.174 km
Semi-major axis
6,887.557 km
Eccentricity
0.00105
Inclination
97.4559°
RAAN
145.8352°
Arg. of periapsis
70.4895°
True anomaly
289.63389°
Mean anomaly
289.7474°
Eccentric anomaly
289.69065°
Mean motion
3.79704 °/min
Orbital period
94.81 mins
BSTAR
0.00066082
Loading maneuver chart data...
Computing Atmospheric mass density...
Loading historical data...
Loading historical data...
Loading historical data...
Loading historical data...
Loading historical data...
Loading historical data...
Loading historical data...

Documentation

Showing up to 5 results
|